Hourly Data Report for October 15, 2015

All times are specified in Local Standard Time (LST). Add 1 hour to adjust for Daylight Saving Time where and when it is observed.

BATHURST A
NEW BRUNSWICK

47°37'47.000" N
65°44'20.000" W
58.80 m
8100505
71574
ZBF

Download Data

Hourly Data (October 2015)
Hourly Data Report for October 15, 2015
Temp Definition
°C
Dew Point Temp Definition
°C
Rel Hum Definition
%
Wind Dir Definition
10's deg

Wind Spd Definition
km/h
Visibility Definition
km
Stn Press Definition
kPa
Hmdx Definition


Wind Chill Definition


Weather Definition


TIME
00:00 Legend Double Dagger 4.5 0.3 74 23 7 24.1 99.58     LegendNANA
01:00 Legend Double Dagger 4.2 -0.8 70 28 4 24.1 99.62     LegendNANA
02:00 Legend Double Dagger 3.3 -2.0 68 25 10 24.1 99.68     Clear
03:00 Legend Double Dagger 3.7 -1.3 70 28 11 24.1 99.70     LegendNANA
04:00 Legend Double Dagger 2.0 -1.4 78 25 8 24.1 99.76     LegendNANA
05:00 Legend Double Dagger 1.7 -1.2 81 26 11 24.1 99.82     Clear
06:00 Legend Double Dagger 0.9 -1.5 84 24 7 24.1 99.88     LegendNANA
07:00 Legend Double Dagger 0.3 -1.8 86 23 8 24.1 99.98     LegendNANA
08:00 Legend Double Dagger 2.5 -1.1 77 26 14 24.1 100.02     Clear
09:00 Legend Double Dagger 4.3 -2.6 61 28 17 24.1 100.06     LegendNANA
10:00 Legend Double Dagger 5.7 -3.1 53 26 21 24.1 100.05     LegendNANA
11:00 Legend Double Dagger 7.2 -3.4 47 26 22 24.1 100.05     Clear
12:00 Legend Double Dagger 8.8 -3.4 42 25 21 24.1 100.03     LegendNANA
13:00 Legend Double Dagger 9.6 -3.7 39 28 17 24.1 99.99     LegendNANA
14:00 Legend Double Dagger 10.7 -2.7 39 28 17 24.1 99.95     Clear
15:00 Legend Double Dagger 11.4 -2.0 39 28 16 24.1 99.96     LegendNANA
16:00 Legend Double Dagger 11.5 -1.6 40 28 13 24.1 99.98     LegendNANA
17:00 Legend Double Dagger 10.2 0.8 52 25 11 24.1 100.02     Mostly Cloudy
18:00 Legend Double Dagger 9.5 1.7 58 24 9 24.1 100.08     LegendNANA
19:00 Legend Double Dagger 8.9 2.3 63 21 6 24.1 100.14     LegendNANA
20:00 Legend Double Dagger 8.6 2.6 66 20 8 24.1 100.16     Cloudy
21:00 Legend Double Dagger 5.8 2.6 80 24 7 24.1 100.20     LegendNANA
22:00 Legend Double Dagger 3.9 1.9 87 23 7 24.1 100.20     LegendNANA
23:00 Legend Double Dagger 3.3 2.0 91 23 8 24.1 100.21     Clear

Notes on Data Quality.

Legend

  • E = Estimated
  • M = Missing
  • NA = Not Available
  • ‡ = Partner data that is not subject to review by the National Climate Archives
Date modified: